[[{"header":{"parameterUnit":"m.s-1","parameterCategory":2,"la1":30.2991,"la2":30.254,"lo1":-89.0895,"lo2":-89.0444,"dy":0.0017,"dx":0.0017,"nx":28,"ny":28,"refTime":"2025-04-02T03:00:00:Z","depth":"0","parameterNumber":2,"parameterNumberName":"U-component_of_CURRENTS"},"data":[0,0,0,0,0,0,0,0,0,0,0,0,0,0,0,0,0,0,0,0,0,0,0,0,0,0,0,0,0,0,0,0,0,0,0,0,0,0,0,0,0,0,0,0,0,0,0,0,0,0,0,0,0,0,0,0,0,0,0.2016,0.2017,0,0.205,0.205,0.205,0.205,0.205,0.205,0.205,0.205,0.205,0.205,0,0,0,0,0,0,0,0,0,0,0,0,0,0.1952,0.1953,0.2016,0.2017,0.2018,0.205,0.205,0.205,0.205,0.205,0.205,0.205,0.205,0.205,0.205,0,0,0,0,0,0,0,0,0,0,0,0,0,0.198,0.1953,0.2016,0.2023,0.2024,0.2049,0.205,0.205,0.205,0.205,0.205,0.2049,0.205,0.205,0.205,0.2059,0,0,0.2051,0.2052,0,0,0,0,0,0,0,0,0.1978,0.1982,0.2022,0.2023,0.2024,0.2047,0.2027,0.2052,0.205,0.2038,0.205,0.2049,0.2048,0.2048,0.2052,0.2059,0.2059,0.2051,0.2052,0.2052,0.2052,0,0,0,0,0,0,0,0.1976,0.198,0.2027,0.2022,0.2024,0.2025,0.2028,0.2032,0.2042,0.2039,0.204,0.2047,0.2048,0.2052,0.2052,0.2059,0.2051,0.2052,0.2052,0.2052,0.2107,0.2109,0,0,0,0,0,0,0.1977,0.1979,0.2026,0.2028,0.2003,0.2026,0.203,0.2038,0.2043,0.2044,0.2048,0.2047,0.2052,0.2052,0.2052,0.2096,0.2052,0.2052,0.2052,0.2106,0.2108,0.2109,0,0,0,0,0,0,0.1976,0.1981,0.2025,0.2006,0.2012,0.2028,0.2037,0.2039,0.2047,0.205,0.205,0.2054,0.2052,0.2052,0.2068,0.2094,0.2052,0.2052,0.2105,0.2107,0.2108,0.216,0,0,0,0,0,0,0.1974,0.1981,0.1986,0.2006,0.2013,0.2049,0.2038,0.204,0.2053,0.2053,0.2055,0.2055,0.2051,0.2068,0.2069,0.2094,0.2053,0.2103,0.2106,0.2108,0.2157,0.2164,0.217,0,0,0,0,0,0.1971,0.1981,0.1986,0.1992,0.202,0.205,0.2053,0.2061,0.2054,0.2065,0.2068,0.2055,0.2084,0.2069,0.207,0.2096,0.2102,0.2105,0.2108,0.2154,0.2163,0.217,0,0,0,0,0,0,0.1951,0.1983,0.1988,0.2006,0.203,0.2051,0.2061,0.2065,0.2076,0.2073,0.2068,0.2069,0.2096,0.2088,0.2072,0.212,0.2092,0.2095,0.2127,0.2135,0.2141,0.2144,0.2053,0,0,0,0,0,0.1951,0.1969,0.1998,0.2013,0.2026,0.2043,0.2055,0.2064,0.2077,0.2081,0.2084,0.2091,0.2108,0.2114,0.2125,0.2146,0.2161,0.2164,0.2171,0.2176,0.218,0.2227,0.2238,0.2119,0.2119,0.2119,0,0,0.1945,0.1967,0.1975,0.2011,0.2027,0.2056,0.2049,0.2073,0.2096,0.208,0.2106,0.2112,0.2119,0.215,0.2161,0.2146,0.2222,0.218,0.2184,0.2185,0.2231,0.2243,0.2253,0.2121,0.212,0.212,0,0,0.195,0.1966,0.1986,0.2012,0.2047,0.2064,0.2073,0.21,0.2112,0.2139,0.2139,0.2162,0.2177,0.2196,0.2205,0.2252,0.2255,0.2254,0.2287,0.2333,0.2344,0.2353,0.2403,0.2416,0.2256,0.2256,0.2256,0,0.194,0.1971,0.1995,0.2027,0.2049,0.2069,0.2097,0.2119,0.2147,0.2165,0.2153,0.22,0.2203,0.2252,0.2269,0.2267,0.2293,0.2257,0.2342,0.2351,0.236,0.2409,0.2423,0.2259,0.2259,0.2258,0.2258,0,0.1966,0.1991,0.2007,0.2054,0.2083,0.211,0.2149,0.2175,0.2188,0.221,0.2257,0.2267,0.2296,0.2305,0.2299,0.2365,0.2365,0.2346,0.2323,0.2375,0.2424,0.2437,0.2263,0.2262,0.2261,0.226,0,0,0.1933,0.2008,0.2012,0.2037,0.2099,0.2121,0.2174,0.2224,0.2255,0.2286,0.233,0.2365,0.2371,0.2383,0.2387,0.2422,0.2507,0.241,0.2411,0.246,0.2621,0.261,0.2623,0.2505,0.2507,0.2509,0.2637,0,0.1941,0.1996,0.2037,0.2084,0.2113,0.216,0.2203,0.2255,0.2295,0.2343,0.2376,0.2415,0.2403,0.2417,0.2458,0.2495,0.2543,0.2475,0.2563,0.2566,0.2549,0.2638,0.2595,0.2704,0.265,0.2653,0.2654,0,0.1947,0.1985,0.2033,0.2098,0.2115,0.2148,0.222,0.2265,0.2348,0.2381,0.2438,0.2464,0.2536,0.2503,0.2613,0.2573,0.2604,0.2627,0.2632,0.2609,0.2579,0.264,0.2731,0.27,0.2675,0.2673,0.2672,0,0.1904,0.1976,0.201,0.2035,0.2116,0.2144,0.2187,0.2271,0.2312,0.2409,0.245,0.2535,0.2579,0.2639,0.2694,0.2663,0.2806,0.2769,0.2793,0.2793,0.2767,0.276,0.2836,0.2847,0.2847,0.2846,0.2846,0,0.1892,0.1913,0.199,0.2007,0.2041,0.2116,0.216,0.2221,0.2314,0.2368,0.2461,0.2521,0.2614,0.27,0.2736,0.2823,0.2851,0.2826,0.2834,0.2785,0.2779,0.2756,0.2714,0.2851,0.285,0.2849,0.2848,0,0.1835,0.1888,0.192,0.1998,0.2019,0.2041,0.2124,0.2165,0.2267,0.2346,0.238,0.2534,0.266,0.2751,0.2863,0.2881,0.2893,0.2967,0.2908,0.2906,0.2878,0.284,0.2782,0.2689,0.3027,0.3028,0.3029,0,0.181,0.1825,0.1887,0.1902,0.1933,0.1978,0.2012,0.2118,0.2175,0.2345,0.2386,0.2545,0.2656,0.2847,0.2923,0.3027,0.2918,0.3018,0.2943,0.2899,0.2863,0.2713,0.2626,0.2943,0.2943,0.2942,0.2942,0,0.1758,0.1777,0.1806,0.1835,0.1865,0.1895,0.196,0.1996,0.2133,0.2227,0.237,0.2479,0.2698,0.2817,0.2964,0.3005,0.2895,0.3015,0.2992,0.283,0.2649,0.2556,0.2837,0.294,0.2941,0.2941,0.2941,0.2941,0.1705,0.1705,0.1744,0.1761,0.1793,0.1815,0.1817,0.1911,0.1993,0.2124,0.2284,0.2438,0.2692,0.2913,0.2929,0.2979,0.2884,0.294,0.2911,0.2772,0.2632,0.291,0.2997,0.2998,0.2998,0.2998,0.2999,0,0.1636,0.1652,0.1672,0.1691,0.1691,0.1732,0.1784,0.1789,0.1855,0.2029,0.2159,0.2453,0.2639,0.2809,0.2988,0.2921,0.2747,0.2848,0.2645,0.2572,0.2876,0.2824,0.285,0.285,0.285,0.285,0.285,0.285,0.1603,0.1594,0.1606,0.1584,0.1596,0.1571,0.1577,0.1611,0.1714,0.1886,0.2059,0.2244,0.2644,0.2964,0.301,0.2911,0.2654,0.2552,0.248,0.2748,0.2753,0.2759,0.2703,0.2702,0.2702,0.2092,0.2087,0.2084]},{"header":{"parameterUnit":"m.s-1","parameterCategory":2,"la1":30.2991,"la2":30.254,"lo1":-89.0895,"lo2":-89.0444,"dy":0.0017,"dx":0.0017,"nx":28,"ny":28,"refTime":"2025-04-02T03:00:00:Z","depth":"0","parameterNumber":3,"parameterNumberName":"V-component_of_CURRENTS"},"data":[0,0,0,0,0,0,0,0,0,0,0,0,0,0,0,0,0,0,0,0,0,0,0,0,0,0,0,0,0,0,0,0,0,0,0,0,0,0,0,0,0,0,0,0,0,0,0,0,0,0,0,0,0,0,0,0,0,0,-0.0129,-0.0129,0,-0.0201,-0.0202,-0.0203,-0.0247,-0.0247,-0.0247,-0.0248,-0.0352,-0.0355,-0.0358,0,0,0,0,0,0,0,0,0,0,0,0,0,-0.0073,-0.0073,-0.0129,-0.013,-0.013,-0.0201,-0.0202,-0.0203,-0.0247,-0.0247,-0.0248,-0.0248,-0.0352,-0.0355,-0.0358,0,0,0,0,0,0,0,0,0,0,0,0,0,-0.0117,-0.0073,-0.0129,-0.016,-0.0164,-0.0201,-0.0202,-0.0203,-0.0247,-0.0247,-0.0248,-0.0248,-0.0351,-0.0354,-0.0358,-0.0378,0,0,-0.037,-0.0372,0,0,0,0,0,0,0,0,-0.0114,-0.0119,-0.0155,-0.0158,-0.0162,-0.0215,-0.0221,-0.0263,-0.0247,-0.0216,-0.0248,-0.0248,-0.0309,-0.0316,-0.033,-0.0383,-0.0387,-0.0371,-0.0373,-0.0375,-0.0376,0,0,0,0,0,0,0,-0.0111,-0.0116,-0.0158,-0.0156,-0.016,-0.0186,-0.0192,-0.0229,-0.0261,-0.0219,-0.0222,-0.0229,-0.0311,-0.0326,-0.0333,-0.0389,-0.0371,-0.0374,-0.0377,-0.0378,-0.0465,-0.0465,0,0,0,0,0,0,-0.0098,-0.0113,-0.0156,-0.016,-0.0137,-0.0186,-0.0193,-0.0198,-0.026,-0.027,-0.0229,-0.0231,-0.0319,-0.0328,-0.0336,-0.0362,-0.0375,-0.0378,-0.0381,-0.0465,-0.0465,-0.0465,0,0,0,0,0,0,-0.0096,-0.0101,-0.0153,-0.0138,-0.0146,-0.0187,-0.0192,-0.0199,-0.0214,-0.0267,-0.0277,-0.0235,-0.0319,-0.0331,-0.0365,-0.0367,-0.038,-0.0384,-0.0465,-0.0465,-0.0465,-0.0415,0,0,0,0,0,0,-0.0095,-0.01,-0.0098,-0.0137,-0.0146,-0.0168,-0.0192,-0.0201,-0.0217,-0.0221,-0.0276,-0.0286,-0.0321,-0.0359,-0.0369,-0.0372,-0.0387,-0.0465,-0.0465,-0.0465,-0.0416,-0.0413,-0.041,0,0,0,0,0,-0.0092,-0.0086,-0.0098,-0.0103,-0.0143,-0.0167,-0.0175,-0.0205,-0.0217,-0.022,-0.0257,-0.0285,-0.0365,-0.0362,-0.0374,-0.0378,-0.0465,-0.0465,-0.0465,-0.0418,-0.0414,-0.041,0,0,0,0,0,0,-0.0059,-0.0091,-0.0105,-0.0108,-0.0133,-0.0174,-0.0179,-0.0201,-0.0232,-0.0235,-0.0286,-0.0298,-0.0329,-0.0359,-0.0354,-0.0403,-0.0419,-0.0422,-0.0379,-0.0376,-0.0373,-0.0353,-0.039,0,0,0,0,0,-0.0051,-0.0055,-0.009,-0.0092,-0.0102,-0.0139,-0.0153,-0.0173,-0.0207,-0.0221,-0.0259,-0.03,-0.0338,-0.036,-0.0395,-0.0423,-0.0444,-0.0433,-0.043,-0.0427,-0.0419,-0.046,-0.0459,-0.0465,-0.0465,-0.0465,0,0,-0.0038,-0.0056,-0.0059,-0.0086,-0.0107,-0.0116,-0.0148,-0.0163,-0.0172,-0.0228,-0.0249,-0.0289,-0.0342,-0.0372,-0.0388,-0.0398,-0.0433,-0.0427,-0.0424,-0.0417,-0.0459,-0.0459,-0.0458,-0.0464,-0.0464,-0.0464,0,0,-0.0013,-0.003,-0.0026,-0.0044,-0.007,-0.0094,-0.0095,-0.0133,-0.0151,-0.0177,-0.022,-0.0258,-0.0313,-0.0351,-0.0379,-0.0379,-0.0413,-0.0391,-0.0363,-0.0403,-0.0402,-0.0402,-0.0411,-0.0412,-0.0391,-0.0391,-0.0391,0,0.0004,0.0004,-0.0027,-0.0029,-0.0036,-0.008,-0.0075,-0.0102,-0.0146,-0.0156,-0.0175,-0.0256,-0.0303,-0.0344,-0.0347,-0.0372,-0.0388,-0.0373,-0.0398,-0.0398,-0.0399,-0.0408,-0.041,-0.0389,-0.0389,-0.0389,-0.039,0,0.0029,0.003,0.0033,0.0017,0.0004,0.0002,-0.0036,-0.005,-0.0076,-0.0106,-0.0146,-0.0211,-0.0256,-0.0283,-0.0318,-0.035,-0.0355,-0.0387,-0.0405,-0.0396,-0.0405,-0.0408,-0.0385,-0.0386,-0.0387,-0.0388,0,0,0.0072,0.0055,0.0057,0.0064,0.003,0.0027,0.0012,-0.0011,-0.0009,-0.0066,-0.0072,-0.0154,-0.0188,-0.0221,-0.0274,-0.0315,-0.0339,-0.0349,-0.0352,-0.035,-0.0402,-0.0394,-0.0396,-0.0376,-0.0377,-0.0377,-0.0399,0,0.0104,0.0121,0.0099,0.0118,0.0125,0.0087,0.0083,0.0054,0.0024,0.0007,-0.007,-0.0098,-0.0165,-0.0183,-0.0238,-0.0311,-0.0347,-0.0328,-0.0417,-0.0419,-0.0408,-0.04,-0.039,-0.0408,-0.0402,-0.0403,-0.0403,0,0.0138,0.0146,0.017,0.0178,0.018,0.0181,0.0176,0.0164,0.0119,0.0096,0.0044,-0.0007,-0.0076,-0.0132,-0.0253,-0.0236,-0.0311,-0.0372,-0.0375,-0.0387,-0.0417,-0.0421,-0.0414,-0.0563,-0.0408,-0.0408,-0.0408,0,0.0189,0.02,0.0226,0.0225,0.022,0.0229,0.0224,0.0192,0.0201,0.0154,0.0161,0.0063,0.0035,-0.0086,-0.0208,-0.0232,-0.0327,-0.038,-0.0439,-0.0438,-0.0456,-0.0456,-0.06,-0.0462,-0.0462,-0.0462,-0.0462,0,0.0232,0.0256,0.0254,0.0269,0.0309,0.0283,0.0314,0.0295,0.0285,0.0308,0.0213,0.022,0.0045,-0.0029,-0.0167,-0.0295,-0.0297,-0.0424,-0.0447,-0.0436,-0.0433,-0.0586,-0.0683,-0.0463,-0.0462,-0.0462,-0.0462,0,0.0279,0.0277,0.0312,0.0323,0.0332,0.0357,0.038,0.0406,0.0386,0.0415,0.0411,0.0346,0.0252,0.0089,-0.0084,-0.0218,-0.0446,-0.0402,-0.0357,-0.0375,-0.0586,-0.0679,-0.0855,-0.0926,-0.048,-0.048,-0.048,0,0.0304,0.0326,0.0356,0.0385,0.0392,0.0424,0.0454,0.0451,0.0486,0.05,0.0531,0.0468,0.044,0.0205,-0.0039,-0.0258,-0.0428,-0.0399,-0.0461,-0.0588,-0.071,-0.079,-0.0843,-0.0457,-0.0457,-0.0457,-0.0457,0,0.0353,0.0361,0.039,0.0446,0.0486,0.0533,0.0578,0.0627,0.0637,0.0679,0.073,0.0718,0.0509,0.031,0.0015,-0.0165,-0.0517,-0.0402,-0.0563,-0.0724,-0.0794,-0.0874,-0.0433,-0.0455,-0.0456,-0.0456,-0.0456,-0.0456,0.0391,0.0419,0.0457,0.0512,0.0563,0.0635,0.0688,0.0756,0.0837,0.0917,0.0894,0.0918,0.062,0.0223,-0.0037,-0.0489,-0.0518,-0.0634,-0.0738,-0.0807,-0.0883,-0.0417,-0.0452,-0.0452,-0.0452,-0.0452,-0.0453,0,0.0437,0.0467,0.0522,0.0589,0.0654,0.067,0.0769,0.0835,0.0951,0.1046,0.11,0.0999,0.0605,0.0191,-0.0401,-0.0743,-0.0904,-0.0946,-0.1077,-0.1117,-0.0722,-0.0728,-0.0789,-0.0789,-0.0789,-0.0789,-0.0789,-0.0789,0.0463,0.0519,0.0543,0.0652,0.0704,0.0798,0.086,0.0971,0.1065,0.12,0.1257,0.128,0.1006,-0.0131,-0.0896,-0.109,-0.1355,-0.1418,-0.1545,-0.1295,-0.1275,-0.1255,-0.1284,-0.146,-0.1461,-0.1892,-0.1896,-0.19]}],[{"header":{"parameterUnit":"m.s-1","parameterCategory":2,"la1":30.2991,"la2":30.254,"lo1":-89.0895,"lo2":-89.0444,"dy":0.0017,"dx":0.0017,"nx":28,"ny":28,"refTime":"2025-04-02T03:00:00:Z","depth":"2","parameterNumber":2,"parameterNumberName":"U-component_of_CURRENTS"},"data":[0,0,0,0,0,0,0,0,0,0,0,0,0,0,0,0,0,0,0,0,0,0,0,0,0,0,0,0,0,0,0,0,0,0,0,0,0,0,0,0,0,0,0,0,0,0,0,0,0,0,0,0,0,0,0,0,0,0,0.1987,0.1987,0,0.2018,0.2019,0.2019,0.2027,0.2027,0.2027,0.2027,0.2041,0.2041,0.2041,0,0,0,0,0,0,0,0,0,0,0,0,0,0.1928,0.1929,0.1987,0.1987,0.1988,0.2018,0.2019,0.2019,0.2027,0.2027,0.2027,0.2027,0.2041,0.2041,0.2041,0,0,0,0,0,0,0,0,0,0,0,0,0,0.1954,0.1929,0.1987,0.1997,0.1999,0.2018,0.2019,0.2019,0.2027,0.2027,0.2027,0.2027,0.204,0.2041,0.2042,0.2045,0,0,0.2043,0.2043,0,0,0,0,0,0,0,0,0.1952,0.1956,0.1995,0.1997,0.1998,0.2021,0.2003,0.2028,0.2027,0.2014,0.2027,0.2027,0.2034,0.2035,0.2038,0.2046,0.2046,0.2043,0.2044,0.2044,0.2044,0,0,0,0,0,0,0,0.195,0.1954,0.1997,0.1996,0.1998,0.1999,0.2002,0.2008,0.2021,0.2015,0.2016,0.2023,0.2034,0.2037,0.2038,0.2047,0.2043,0.2044,0.2044,0.2044,0.2106,0.2108,0,0,0,0,0,0,0.1951,0.1953,0.1996,0.1998,0.1977,0.2,0.2004,0.2012,0.2022,0.2024,0.2023,0.2023,0.2036,0.2038,0.2039,0.2094,0.2044,0.2044,0.2045,0.2105,0.2107,0.2108,0,0,0,0,0,0,0.195,0.1955,0.1995,0.1978,0.1983,0.2001,0.201,0.2012,0.2024,0.2029,0.203,0.2033,0.2036,0.2038,0.2059,0.2092,0.2045,0.2045,0.2104,0.2106,0.2107,0.2171,0,0,0,0,0,0,0.1948,0.1954,0.1961,0.1978,0.1984,0.2017,0.201,0.2013,0.2028,0.2029,0.2038,0.2038,0.2037,0.2058,0.206,0.2092,0.2046,0.2102,0.2104,0.2107,0.2167,0.2175,0.2181,0,0,0,0,0,0.1946,0.1956,0.1961,0.1967,0.1993,0.2018,0.2022,0.2032,0.2029,0.2041,0.2048,0.2038,0.2075,0.206,0.2061,0.2094,0.2101,0.2104,0.2107,0.2164,0.2173,0.2181,0,0,0,0,0,0,0.193,0.1959,0.1965,0.1982,0.2004,0.2021,0.2033,0.2038,0.2052,0.2054,0.2051,0.2054,0.2086,0.2079,0.2062,0.212,0.2088,0.2091,0.2131,0.214,0.2147,0.2148,0.2046,0,0,0,0,0,0.1932,0.1949,0.1974,0.1989,0.2002,0.2018,0.2029,0.2039,0.2054,0.206,0.2068,0.2079,0.2098,0.2109,0.212,0.2148,0.2156,0.2171,0.2178,0.2184,0.2186,0.2233,0.2245,0.2118,0.2118,0.2118,0,0,0.1928,0.1948,0.1956,0.1988,0.2004,0.2029,0.2024,0.2049,0.2073,0.2059,0.2092,0.2102,0.211,0.2147,0.2161,0.2146,0.2228,0.2188,0.2193,0.2192,0.2238,0.225,0.2261,0.212,0.2119,0.2119,0,0,0.1935,0.1951,0.197,0.1994,0.2027,0.204,0.205,0.2076,0.2093,0.2125,0.2127,0.2157,0.2177,0.2199,0.221,0.2261,0.2262,0.2267,0.2307,0.2353,0.2364,0.2374,0.2412,0.2425,0.2272,0.2273,0.2273,0,0.1928,0.1957,0.1979,0.2008,0.2029,0.2047,0.2073,0.2097,0.2127,0.215,0.2143,0.2199,0.2205,0.226,0.2281,0.2278,0.2301,0.2274,0.2363,0.2373,0.2382,0.2419,0.2432,0.2276,0.2276,0.2275,0.2275,0,0.1953,0.1978,0.1993,0.2036,0.2062,0.2088,0.2125,0.2155,0.2174,0.2199,0.2256,0.2271,0.2307,0.2319,0.2316,0.2387,0.2383,0.2366,0.2342,0.2399,0.2434,0.2446,0.2281,0.228,0.2279,0.2278,0,0,0.1925,0.1995,0.1999,0.2023,0.2079,0.2099,0.2153,0.2204,0.2239,0.2279,0.233,0.2375,0.2389,0.2402,0.241,0.2449,0.2535,0.2439,0.244,0.2479,0.2642,0.2608,0.2617,0.254,0.2542,0.2544,0.2646,0,0.1934,0.1985,0.2022,0.2068,0.2095,0.214,0.2184,0.2237,0.2282,0.2337,0.2379,0.2425,0.242,0.2442,0.2488,0.2526,0.2569,0.2508,0.258,0.2582,0.2546,0.2631,0.2441,0.2513,0.2658,0.266,0.2661,0,0.194,0.1976,0.2021,0.2085,0.2101,0.2132,0.2206,0.2252,0.234,0.2379,0.2445,0.2477,0.2558,0.2529,0.264,0.2607,0.263,0.265,0.2654,0.2606,0.2571,0.2478,0.253,0.2682,0.268,0.2679,0.2677,0,0.1901,0.197,0.2003,0.2026,0.2103,0.2133,0.2176,0.2262,0.2307,0.2409,0.2452,0.2549,0.2595,0.2659,0.2709,0.2689,0.2813,0.2788,0.2778,0.2776,0.2618,0.2598,0.2855,0.2855,0.2855,0.2855,0.2855,0,0.189,0.1912,0.1985,0.2002,0.2038,0.2109,0.2157,0.222,0.2314,0.2369,0.2467,0.2526,0.2629,0.2707,0.2745,0.2812,0.2851,0.2807,0.281,0.2636,0.2617,0.2754,0.2741,0.2859,0.2858,0.2857,0.2856,0,0.1836,0.1887,0.1919,0.1996,0.2017,0.2041,0.2125,0.2169,0.227,0.2348,0.2384,0.2532,0.2649,0.2735,0.2842,0.2852,0.2915,0.2913,0.2702,0.2679,0.2841,0.283,0.2944,0.2944,0.2944,0.2944,0.2944,0,0.1813,0.1828,0.189,0.1905,0.1936,0.1983,0.2019,0.2126,0.218,0.2341,0.2378,0.2525,0.2619,0.2783,0.2835,0.292,0.2925,0.2759,0.2685,0.2863,0.2855,0.2844,0.2833,0.2505,0.2502,0.2499,0.2496,0,0.1764,0.1783,0.1811,0.1842,0.1874,0.1904,0.197,0.2003,0.2135,0.222,0.2345,0.244,0.2612,0.2638,0.2743,0.2753,0.274,0.2702,0.2956,0.2511,0.2458,0.2446,0.2449,0.247,0.2472,0.2474,0.2476,0.2477,0.1715,0.1716,0.1753,0.1773,0.1806,0.1826,0.183,0.1914,0.1987,0.2094,0.2237,0.2321,0.2425,0.2516,0.2489,0.2476,0.2659,0.2549,0.2555,0.2565,0.2495,0.2444,0.244,0.2443,0.2445,0.2447,0.2448,0,0.165,0.1666,0.1686,0.1706,0.1707,0.1749,0.1796,0.1794,0.1844,0.1969,0.2068,0.2014,0.2081,0.2161,0.2134,0.2187,0.2127,0.2082,0.198,0.2012,0.2039,0.1936,0.1736,0.1733,0.173,0.1728,0,0,0.162,0.1611,0.1621,0.1601,0.1615,0.1592,0.1595,0.1612,0.1677,0.1713,0.1757,0.1958,0.2104,0.1871,0.189,0.1798,0.1865,0.1729,0.2314,0.2225,0.2247,0.2344,0.2228,0,0,0,0,0]},{"header":{"parameterUnit":"m.s-1","parameterCategory":2,"la1":30.2991,"la2":30.254,"lo1":-89.0895,"lo2":-89.0444,"dy":0.0017,"dx":0.0017,"nx":28,"ny":28,"refTime":"2025-04-02T03:00:00:Z","depth":"2","parameterNumber":3,"parameterNumberName":"V-component_of_CURRENTS"},"data":[0,0,0,0,0,0,0,0,0,0,0,0,0,0,0,0,0,0,0,0,0,0,0,0,0,0,0,0,0,0,0,0,0,0,0,0,0,0,0,0,0,0,0,0,0,0,0,0,0,0,0,0,0,0,0,0,0,0,-0.0197,-0.0198,0,-0.0266,-0.0267,-0.0268,-0.031,-0.0311,-0.0311,-0.0311,-0.0414,-0.0417,-0.0419,0,0,0,0,0,0,0,0,0,0,0,0,0,-0.0145,-0.0145,-0.0197,-0.0198,-0.0199,-0.0266,-0.0267,-0.0268,-0.031,-0.0311,-0.0311,-0.0311,-0.0413,-0.0416,-0.042,0,0,0,0,0,0,0,0,0,0,0,0,0,-0.0186,-0.0145,-0.0197,-0.0227,-0.0231,-0.0266,-0.0267,-0.0268,-0.031,-0.0311,-0.0311,-0.0311,-0.0412,-0.0416,-0.042,-0.0439,0,0,-0.0432,-0.0434,0,0,0,0,0,0,0,0,-0.0184,-0.0188,-0.0222,-0.0225,-0.0229,-0.0279,-0.0286,-0.0327,-0.031,-0.0281,-0.0311,-0.0311,-0.0372,-0.0379,-0.0392,-0.0444,-0.0448,-0.0432,-0.0435,-0.0436,-0.0437,0,0,0,0,0,0,0,-0.0181,-0.0186,-0.0225,-0.0223,-0.0227,-0.0252,-0.0258,-0.0294,-0.0325,-0.0284,-0.0287,-0.0293,-0.0374,-0.0388,-0.0395,-0.045,-0.0432,-0.0436,-0.0438,-0.044,-0.0523,-0.0523,0,0,0,0,0,0,-0.0168,-0.0183,-0.0223,-0.0227,-0.0206,-0.0253,-0.0259,-0.0264,-0.0324,-0.0333,-0.0293,-0.0295,-0.0381,-0.039,-0.0399,-0.0422,-0.0436,-0.044,-0.0442,-0.0524,-0.0523,-0.0523,0,0,0,0,0,0,-0.0167,-0.0171,-0.022,-0.0206,-0.0214,-0.0253,-0.0258,-0.0265,-0.0278,-0.0331,-0.0341,-0.0299,-0.0382,-0.0393,-0.0427,-0.0426,-0.0442,-0.0445,-0.0524,-0.0523,-0.0523,-0.047,0,0,0,0,0,0,-0.0165,-0.017,-0.0169,-0.0205,-0.0214,-0.0234,-0.0258,-0.0266,-0.0282,-0.0285,-0.0339,-0.0349,-0.0383,-0.042,-0.043,-0.0432,-0.0448,-0.0524,-0.0524,-0.0523,-0.0472,-0.0468,-0.0465,0,0,0,0,0,-0.0163,-0.0157,-0.0168,-0.0173,-0.0211,-0.0234,-0.024,-0.027,-0.0281,-0.0284,-0.032,-0.0347,-0.0426,-0.0423,-0.0435,-0.0438,-0.0524,-0.0524,-0.0523,-0.0473,-0.0469,-0.0465,0,0,0,0,0,0,-0.0131,-0.0161,-0.0175,-0.0177,-0.0201,-0.024,-0.0244,-0.0265,-0.0296,-0.0299,-0.0348,-0.0361,-0.039,-0.042,-0.0416,-0.0461,-0.0479,-0.0481,-0.0437,-0.0433,-0.0429,-0.041,-0.0452,0,0,0,0,0,-0.0123,-0.0127,-0.016,-0.0161,-0.017,-0.0207,-0.0219,-0.0239,-0.0271,-0.0284,-0.0322,-0.0362,-0.0398,-0.0419,-0.0454,-0.048,-0.0501,-0.0489,-0.0485,-0.0482,-0.0474,-0.0512,-0.0511,-0.0522,-0.0522,-0.0522,0,0,-0.011,-0.0127,-0.013,-0.0155,-0.0175,-0.0182,-0.0215,-0.0228,-0.0236,-0.0291,-0.031,-0.0351,-0.0402,-0.043,-0.0445,-0.0455,-0.0487,-0.0481,-0.0478,-0.0472,-0.0512,-0.0511,-0.051,-0.0522,-0.0522,-0.0522,0,0,-0.0085,-0.0102,-0.0096,-0.0113,-0.0138,-0.0161,-0.0161,-0.0198,-0.0214,-0.0239,-0.0281,-0.0317,-0.0371,-0.0406,-0.0432,-0.043,-0.0466,-0.0444,-0.0413,-0.045,-0.0449,-0.0449,-0.0458,-0.0459,-0.0443,-0.0443,-0.0443,0,-0.0068,-0.0067,-0.0098,-0.0097,-0.0104,-0.0146,-0.014,-0.0165,-0.0207,-0.0217,-0.0236,-0.0313,-0.0359,-0.0395,-0.0397,-0.0422,-0.044,-0.0424,-0.0445,-0.0445,-0.0445,-0.0455,-0.0457,-0.044,-0.044,-0.0441,-0.0441,0,-0.0042,-0.0041,-0.0037,-0.005,-0.0062,-0.0063,-0.0098,-0.0111,-0.0136,-0.0164,-0.0201,-0.0263,-0.0307,-0.0332,-0.0367,-0.0394,-0.0403,-0.0434,-0.0452,-0.0441,-0.0452,-0.0455,-0.0436,-0.0437,-0.0438,-0.0439,0,0,-0.0001,-0.0015,-0.0013,-0.0006,-0.0035,-0.0038,-0.0049,-0.0068,-0.0066,-0.0119,-0.0125,-0.0201,-0.0235,-0.0266,-0.0318,-0.0356,-0.0377,-0.0393,-0.0396,-0.0395,-0.0439,-0.0437,-0.044,-0.0415,-0.0415,-0.0416,-0.0439,0,0.0032,0.005,0.003,0.0051,0.006,0.0024,0.0023,-0.0003,-0.0032,-0.0048,-0.0119,-0.0146,-0.021,-0.0228,-0.0279,-0.0353,-0.0385,-0.0366,-0.0457,-0.0458,-0.0453,-0.0444,-0.0421,-0.044,-0.0442,-0.0443,-0.0443,0,0.0066,0.0074,0.01,0.011,0.0111,0.0115,0.0113,0.0104,0.0063,0.004,-0.0008,-0.0058,-0.0121,-0.0175,-0.0292,-0.0278,-0.0349,-0.0409,-0.0412,-0.043,-0.0462,-0.0457,-0.0445,-0.0448,-0.0448,-0.0447,-0.0447,0,0.0114,0.0127,0.0153,0.0154,0.0152,0.0161,0.0159,0.0131,0.0139,0.0097,0.0102,0.0011,-0.0017,-0.0132,-0.0252,-0.0274,-0.037,-0.0417,-0.0478,-0.0478,-0.0486,-0.0486,-0.0493,-0.0492,-0.0492,-0.0492,-0.0492,0,0.0156,0.018,0.018,0.0195,0.0235,0.0212,0.0244,0.0228,0.0219,0.024,0.0152,0.0156,-0.0009,-0.0083,-0.0215,-0.0341,-0.0342,-0.0463,-0.0487,-0.0465,-0.0462,-0.0497,-0.0498,-0.0493,-0.0493,-0.0493,-0.0493,0,0.02,0.02,0.0235,0.0247,0.0257,0.0282,0.0306,0.033,0.0312,0.0339,0.0336,0.0271,0.0175,0.0021,-0.0146,-0.0272,-0.0407,-0.045,-0.0396,-0.0413,-0.0498,-0.0496,-0.0527,-0.0527,-0.0527,-0.0527,-0.0527,0,0.0224,0.0245,0.0277,0.0304,0.0312,0.0344,0.0373,0.0372,0.0404,0.0415,0.0442,0.0377,0.0341,0.0111,-0.0118,-0.0325,-0.0371,-0.0444,-0.0495,-0.0483,-0.0504,-0.0501,-0.0498,-0.0477,-0.0477,-0.0477,-0.0476,0,0.0269,0.0278,0.0305,0.036,0.0399,0.0444,0.0487,0.0531,0.0541,0.0576,0.0616,0.0597,0.0393,0.0196,-0.0084,-0.024,-0.0415,-0.0445,-0.0452,-0.0471,-0.0438,-0.0458,-0.0456,-0.0474,-0.0474,-0.0475,-0.0475,-0.0475,0.0304,0.033,0.0366,0.042,0.047,0.0536,0.0585,0.0645,0.0716,0.0777,0.0751,0.0732,0.0507,0.016,-0.0096,-0.0378,-0.0383,-0.0492,-0.0492,-0.0492,-0.0481,-0.0451,-0.0485,-0.0486,-0.0486,-0.0486,-0.0486,0,0.0343,0.0372,0.0425,0.0488,0.0549,0.0569,0.0659,0.071,0.0808,0.087,0.0904,0.0706,0.0491,0.0224,-0.0181,-0.0425,-0.0463,-0.0508,-0.0497,-0.0497,-0.0497,-0.0487,-0.0493,-0.0494,-0.0494,-0.0495,0,0,0.0366,0.0416,0.0438,0.054,0.0592,0.0678,0.0734,0.0819,0.0881,0.0945,0.095,0.0919,0.0594,0.0309,-0.0023,-0.0255,-0.0328,-0.0312,-0.0281,-0.0229,-0.0227,-0.0464,-0.0445,0,0,0,0,0]}],[{"header":{"parameterUnit":"m.s-1","parameterCategory":2,"la1":30.2991,"la2":30.254,"lo1":-89.0895,"lo2":-89.0444,"dy":0.0017,"dx":0.0017,"nx":28,"ny":28,"refTime":"2025-04-02T03:00:00:Z","depth":"4","parameterNumber":2,"parameterNumberName":"U-component_of_CURRENTS"},"data":[0,0,0,0,0,0,0,0,0,0,0,0,0,0,0,0,0,0,0,0,0,0,0,0,0,0,0,0,0,0,0,0,0,0,0,0,0,0,0,0,0,0,0,0,0,0,0,0,0,0,0,0,0,0,0,0,0,0,0.1306,0.1307,0,0.136,0.136,0.136,0.1404,0.1404,0.1405,0.1406,0.1462,0.1463,0.1463,0,0,0,0,0,0,0,0,0,0,0,0,0,0.1226,0.1227,0.1306,0.1307,0.1308,0.136,0.136,0.1361,0.1404,0.1404,0.1405,0.1406,0.1461,0.1462,0.1464,0,0,0,0,0,0,0,0,0,0,0,0,0,0.1266,0.1227,0.1306,0.1337,0.134,0.1359,0.136,0.1361,0.1403,0.1404,0.1405,0.1406,0.1461,0.1462,0.1464,0.1453,0,0,0.1468,0.1468,0,0,0,0,0,0,0,0,0.1264,0.1269,0.1332,0.1335,0.1339,0.1378,0.1353,0.1393,0.1403,0.1377,0.1406,0.1407,0.1434,0.1438,0.1443,0.1456,0.1459,0.1468,0.1469,0.1469,0.147,0,0,0,0,0,0,0,0.1261,0.1267,0.1325,0.1332,0.1337,0.1343,0.135,0.136,0.1399,0.138,0.1384,0.1392,0.1436,0.1442,0.1445,0.1459,0.1468,0.1469,0.147,0.1471,0.1557,0.1558,0,0,0,0,0,0,0.1258,0.1264,0.1324,0.1327,0.1305,0.1344,0.1351,0.1363,0.1399,0.1405,0.1391,0.1394,0.1439,0.1443,0.1447,0.1516,0.1469,0.1471,0.1471,0.1556,0.1557,0.1559,0,0,0,0,0,0,0.1257,0.1263,0.1322,0.1298,0.1306,0.1345,0.1357,0.1363,0.1398,0.1408,0.1415,0.1424,0.144,0.1445,0.1485,0.1516,0.1471,0.1473,0.1554,0.1556,0.1558,0.1604,0,0,0,0,0,0,0.1254,0.1262,0.1282,0.1298,0.1308,0.1352,0.1356,0.1364,0.1401,0.1406,0.1437,0.1441,0.1441,0.1483,0.1486,0.1517,0.1474,0.1552,0.1555,0.1557,0.1601,0.1608,0.1614,0,0,0,0,0,0.1251,0.1269,0.1283,0.1291,0.133,0.1353,0.1359,0.1387,0.1402,0.1422,0.1446,0.1442,0.1503,0.1485,0.1489,0.1521,0.1551,0.1554,0.1557,0.1598,0.1606,0.1613,0,0,0,0,0,0,0.1246,0.1276,0.1291,0.1319,0.1345,0.1362,0.1387,0.1403,0.1437,0.1451,0.1457,0.1464,0.151,0.151,0.149,0.1555,0.1527,0.1532,0.1557,0.1565,0.1571,0.1569,0.1475,0,0,0,0,0,0.1253,0.1278,0.1303,0.133,0.1345,0.1371,0.139,0.1409,0.1434,0.1452,0.1474,0.1499,0.152,0.154,0.1555,0.1589,0.1595,0.1614,0.162,0.1626,0.1628,0.1659,0.1668,0.157,0.157,0.157,0,0,0.1259,0.128,0.1295,0.1331,0.1355,0.1378,0.1386,0.1423,0.1449,0.1451,0.1503,0.1521,0.1534,0.1574,0.1595,0.1583,0.1661,0.163,0.1634,0.1633,0.1664,0.1673,0.1681,0.1572,0.1572,0.1571,0,0,0.1272,0.1304,0.1325,0.1349,0.139,0.1404,0.1421,0.1456,0.1484,0.1526,0.1538,0.1576,0.161,0.1627,0.1638,0.1689,0.1691,0.1702,0.1736,0.1767,0.1776,0.1783,0.1816,0.1826,0.1708,0.1708,0.1708,0,0.1279,0.1309,0.1336,0.1361,0.1387,0.1419,0.1445,0.1472,0.1518,0.1544,0.1551,0.162,0.1632,0.1679,0.17,0.1703,0.1724,0.1704,0.1775,0.1782,0.1789,0.1821,0.1831,0.1711,0.1711,0.171,0.171,0,0.1298,0.1333,0.135,0.1392,0.1422,0.1453,0.1489,0.1529,0.1565,0.159,0.1655,0.1677,0.1719,0.1733,0.1732,0.1792,0.1794,0.1776,0.1753,0.1801,0.1833,0.1843,0.1715,0.1714,0.1713,0.1712,0,0,0.1281,0.1349,0.1358,0.1387,0.1444,0.1466,0.1518,0.1568,0.1608,0.1658,0.1711,0.1756,0.1781,0.1794,0.181,0.1839,0.1906,0.1835,0.1836,0.1864,0.1988,0.189,0.1891,0.1906,0.1908,0.1909,0.1997,0,0.129,0.134,0.1373,0.1426,0.1455,0.1505,0.1549,0.1601,0.1648,0.1707,0.1749,0.1803,0.1801,0.1836,0.1866,0.1896,0.1932,0.1884,0.1941,0.1942,0.1845,0.1898,0.1915,0.2004,0.2006,0.2007,0.2009,0,0.1289,0.1327,0.1379,0.1451,0.147,0.1508,0.1588,0.1632,0.1712,0.1753,0.1816,0.185,0.1919,0.1902,0.1983,0.1958,0.1982,0.1997,0.2,0.1895,0.1861,0.1942,0.2026,0.2024,0.2023,0.2022,0.2021,0,0.1254,0.1328,0.1372,0.1397,0.148,0.1522,0.1573,0.1652,0.1701,0.1793,0.1842,0.1914,0.1972,0.2007,0.2054,0.2028,0.2135,0.2096,0.2032,0.2026,0.2067,0.2058,0.2151,0.2151,0.2151,0.215,0.215,0,0.1235,0.1273,0.1366,0.1389,0.1449,0.1516,0.1585,0.1645,0.1738,0.1793,0.1872,0.1925,0.2003,0.2071,0.2086,0.2098,0.2167,0.2047,0.2041,0.2086,0.2079,0.2074,0.2064,0.2154,0.2153,0.2152,0.2152,0,0.1183,0.1244,0.13,0.1399,0.1434,0.1478,0.159,0.1634,0.1735,0.1812,0.185,0.1966,0.2046,0.2116,0.2187,0.2138,0.2155,0.2144,0.2215,0.221,0.2016,0.2008,0.2061,0.2058,0.2056,0.2054,0.2052,0,0.1158,0.1184,0.1293,0.1329,0.1379,0.1457,0.1508,0.162,0.1665,0.1816,0.1843,0.1973,0.2033,0.2062,0.2137,0.2174,0.215,0.2146,0.2047,0.2018,0.2008,0.2003,0.1998,0.2048,0.2048,0.2047,0.2047,0,0.1109,0.116,0.1206,0.128,0.1342,0.1397,0.148,0.1504,0.1627,0.1736,0.1793,0.1844,0.1939,0.1992,0.2054,0.2067,0.2132,0.212,0.2123,0.203,0.2003,0.1994,0.1992,0.2038,0.204,0.204,0.2041,0,0.1075,0.1094,0.1164,0.1217,0.129,0.1319,0.1369,0.1426,0.1488,0.1645,0.1663,0.1798,0.1913,0.1941,0.1991,0.2008,0.1964,0.1884,0.1899,0.1909,0.1819,0.176,0.1724,0,0,0,0,0,0.1033,0.1047,0.1094,0.1146,0.1213,0.1254,0.1343,0.1393,0.1509,0.1508,0.1579,0.1654,0.1729,0.1805,0.1793,0.1935,0.1979,0.1913,0.1895,0.1994,0.2003,0.1912,0,0,0,0,0,0,0.1005,0.1048,0.1066,0.1076,0.1097,0.1157,0.1207,0.1284,0.1286,0.1411,0.1461,0.156,0.1662,0.1721,0.1763,0.1787,0.1745,0.2002,0.1998,0.1988,0.1997,0.2004,0.1914,0,0,0,0,0]},{"header":{"parameterUnit":"m.s-1","parameterCategory":2,"la1":30.2991,"la2":30.254,"lo1":-89.0895,"lo2":-89.0444,"dy":0.0017,"dx":0.0017,"nx":28,"ny":28,"refTime":"2025-04-02T03:00:00:Z","depth":"4","parameterNumber":3,"parameterNumberName":"V-component_of_CURRENTS"},"data":[0,0,0,0,0,0,0,0,0,0,0,0,0,0,0,0,0,0,0,0,0,0,0,0,0,0,0,0,0,0,0,0,0,0,0,0,0,0,0,0,0,0,0,0,0,0,0,0,0,0,0,0,0,0,0,0,0,0,-0.0116,-0.0116,0,-0.0165,-0.0165,-0.0166,-0.0202,-0.0202,-0.0202,-0.0202,-0.0287,-0.0289,-0.0291,0,0,0,0,0,0,0,0,0,0,0,0,0,-0.008,-0.008,-0.0116,-0.0116,-0.0117,-0.0165,-0.0165,-0.0166,-0.0201,-0.0202,-0.0202,-0.0202,-0.0287,-0.0289,-0.0291,0,0,0,0,0,0,0,0,0,0,0,0,0,-0.0109,-0.008,-0.0116,-0.014,-0.0143,-0.0164,-0.0165,-0.0166,-0.0201,-0.0202,-0.0202,-0.0203,-0.0286,-0.0289,-0.0292,-0.0302,0,0,-0.0301,-0.0302,0,0,0,0,0,0,0,0,-0.0107,-0.011,-0.0136,-0.0138,-0.0141,-0.0177,-0.0184,-0.0213,-0.0201,-0.0179,-0.0202,-0.0203,-0.0253,-0.0259,-0.0267,-0.0306,-0.031,-0.0301,-0.0303,-0.0304,-0.0305,0,0,0,0,0,0,0,-0.0105,-0.0108,-0.0135,-0.0136,-0.014,-0.0158,-0.0162,-0.019,-0.0214,-0.0181,-0.0184,-0.0189,-0.0255,-0.0264,-0.027,-0.0311,-0.0301,-0.0304,-0.0306,-0.0307,-0.037,-0.037,0,0,0,0,0,0,-0.0096,-0.0106,-0.0134,-0.0137,-0.0124,-0.0158,-0.0163,-0.0165,-0.0213,-0.0221,-0.0188,-0.019,-0.0259,-0.0266,-0.0273,-0.0284,-0.0304,-0.0307,-0.0309,-0.037,-0.037,-0.0369,0,0,0,0,0,0,-0.0095,-0.0098,-0.0132,-0.0123,-0.0128,-0.0158,-0.0161,-0.0166,-0.018,-0.0218,-0.0226,-0.0197,-0.0259,-0.0269,-0.0296,-0.0287,-0.0308,-0.0311,-0.037,-0.037,-0.037,-0.0308,0,0,0,0,0,0,-0.0094,-0.0098,-0.0098,-0.0122,-0.0128,-0.0141,-0.016,-0.0167,-0.0182,-0.0185,-0.0228,-0.0236,-0.026,-0.0291,-0.0299,-0.0292,-0.0314,-0.037,-0.037,-0.037,-0.0311,-0.0306,-0.0302,0,0,0,0,0,-0.0093,-0.0088,-0.0097,-0.0101,-0.0127,-0.0141,-0.0146,-0.0169,-0.0181,-0.0183,-0.0213,-0.0235,-0.0295,-0.0294,-0.0303,-0.0296,-0.037,-0.037,-0.037,-0.0312,-0.0307,-0.0302,0,0,0,0,0,0,-0.0072,-0.0092,-0.0103,-0.0104,-0.0121,-0.0147,-0.0151,-0.0168,-0.0193,-0.0197,-0.0235,-0.0245,-0.0266,-0.0291,-0.0289,-0.0314,-0.0336,-0.0337,-0.0289,-0.0284,-0.028,-0.0262,-0.0316,0,0,0,0,0,-0.0067,-0.0069,-0.0091,-0.0093,-0.0099,-0.0126,-0.0135,-0.015,-0.0174,-0.0186,-0.0215,-0.0246,-0.0271,-0.0285,-0.0313,-0.0328,-0.0351,-0.033,-0.0325,-0.0322,-0.0314,-0.0336,-0.0333,-0.0368,-0.0368,-0.0368,0,0,-0.0059,-0.007,-0.0072,-0.0089,-0.0103,-0.0104,-0.0132,-0.0143,-0.0143,-0.0191,-0.0203,-0.0236,-0.0273,-0.0287,-0.0299,-0.0307,-0.0326,-0.0321,-0.0318,-0.0312,-0.0336,-0.0332,-0.0329,-0.0368,-0.0368,-0.0368,0,0,-0.004,-0.0054,-0.0048,-0.0058,-0.0076,-0.009,-0.0091,-0.0117,-0.0129,-0.0146,-0.0178,-0.0201,-0.0244,-0.0261,-0.0277,-0.0267,-0.0305,-0.0282,-0.0243,-0.0265,-0.0262,-0.026,-0.0289,-0.029,-0.0277,-0.0277,-0.0276,0,-0.003,-0.0026,-0.0049,-0.0044,-0.0047,-0.008,-0.0071,-0.0085,-0.0116,-0.0122,-0.0142,-0.0195,-0.0227,-0.0238,-0.0234,-0.0256,-0.028,-0.0257,-0.0258,-0.0257,-0.0255,-0.0286,-0.0287,-0.0274,-0.0274,-0.0274,-0.0274,0,-0.0006,-0.0004,0.0,-0.0004,-0.0009,-0.0008,-0.0027,-0.0035,-0.0056,-0.0073,-0.0095,-0.0137,-0.0167,-0.018,-0.0205,-0.0209,-0.0234,-0.0251,-0.0266,-0.0248,-0.0282,-0.0284,-0.0269,-0.027,-0.0271,-0.0272,0,0,0.0018,0.0017,0.0019,0.0027,0.0013,0.0013,0.0016,0.001,0.0013,-0.0021,-0.0022,-0.0062,-0.009,-0.011,-0.0145,-0.0162,-0.0175,-0.0198,-0.02,-0.0218,-0.0232,-0.0234,-0.0238,-0.0194,-0.0194,-0.0194,-0.0261,0,0.0043,0.0064,0.0056,0.0078,0.0088,0.0068,0.0076,0.0065,0.0046,0.0037,-0.0004,-0.0023,-0.0062,-0.0077,-0.0099,-0.0159,-0.0179,-0.0156,-0.0255,-0.0257,-0.0255,-0.024,-0.0194,-0.0263,-0.0264,-0.0264,-0.0264,0,0.0069,0.008,0.0106,0.0122,0.0125,0.0133,0.014,0.0141,0.0122,0.0104,0.0078,0.0041,0.001,-0.0027,-0.0108,-0.0094,-0.0154,-0.02,-0.0204,-0.0227,-0.0264,-0.0287,-0.027,-0.0269,-0.0269,-0.0269,-0.0268,0,0.0096,0.0116,0.014,0.0144,0.0155,0.0166,0.017,0.0161,0.0171,0.0145,0.0144,0.0093,0.0067,-0.0007,-0.0103,-0.0108,-0.0196,-0.0218,-0.0277,-0.0279,-0.0284,-0.0286,-0.0269,-0.0269,-0.0269,-0.0269,-0.0268,0,0.0123,0.0143,0.0155,0.0168,0.0201,0.0196,0.0223,0.0218,0.0219,0.0237,0.018,0.0179,0.0072,0.0008,-0.0085,-0.0187,-0.0186,-0.0264,-0.029,-0.0259,-0.0257,-0.0286,-0.0287,-0.0271,-0.0271,-0.027,-0.027,0,0.0144,0.0152,0.0182,0.0203,0.0214,0.0234,0.0264,0.0284,0.0275,0.0296,0.0293,0.0242,0.0159,0.0046,-0.0079,-0.0158,-0.0261,-0.0299,-0.0257,-0.0281,-0.0335,-0.0332,-0.0367,-0.0368,-0.0368,-0.0369,-0.0369,0,0.0155,0.0172,0.0207,0.023,0.024,0.027,0.0296,0.0307,0.033,0.0338,0.0353,0.029,0.0239,0.0069,-0.0065,-0.0242,-0.0269,-0.0331,-0.0328,-0.0321,-0.0343,-0.0339,-0.0336,-0.037,-0.037,-0.037,-0.037,0,0.0175,0.0185,0.021,0.0256,0.0289,0.033,0.0367,0.0394,0.0411,0.041,0.0413,0.0328,0.0233,0.0088,-0.0053,-0.0182,-0.0295,-0.0336,-0.0336,-0.0334,-0.0324,-0.0345,-0.0341,-0.0372,-0.0371,-0.0371,-0.0371,0,0.0187,0.0205,0.0237,0.0279,0.0327,0.0376,0.0394,0.0428,0.0454,0.0467,0.0466,0.0365,0.0306,0.0119,-0.001,-0.0138,-0.0174,-0.0222,-0.0229,-0.0229,-0.0172,-0.0138,-0.0142,0,0,0,0,0,0.0197,0.0217,0.0258,0.0305,0.0356,0.0383,0.0438,0.0453,0.0477,0.0493,0.0485,0.0401,0.0227,0.0149,0.0024,-0.004,-0.0215,-0.0195,-0.0278,-0.038,-0.0378,-0.0336,0,0,0,0,0,0,0.0202,0.0237,0.0256,0.032,0.0357,0.0414,0.0451,0.0471,0.0478,0.0487,0.0403,0.0361,0.0191,0.0304,0.0021,-0.002,-0.0093,-0.0278,-0.0281,-0.0381,-0.038,-0.0378,-0.0334,0,0,0,0,0]}]]